When you browse on this site, cookies collect data to enhance your experience and personalize the content and advertising you see.
Visit our Privacy Policy to learn more. By continuing to use the site, you agree to this use of cookies and data.
  • In Deutschland
  • Länderverzeichnis
  • Für 7 Tage
  • Wassertemperatur
  • Satellitenkarten
  • Wetterkarte
  • Widgets
  • user-avatar
    Anmelden

    Stündliche Wetter Ushuaia

    Heute, 14 Dezember, Freitag

    Zeit Temperatur Niederschläge Wind Luftdruck Luftfeuchtigkeit
    00:00 +2°C° 0 mm 2 m/S 733 mmHg 84%
    01:00 +2°C° 0 mm 1 m/S 732 mmHg 87%
    02:00 +1°C° 0 mm 2 m/S 732 mmHg 86%
    03:00 +1°C° 0 mm 2 m/S 731 mmHg 84%
    04:00 +1°C° 0 mm 3 m/S 731 mmHg 83%
    05:00 +3°C° 0 mm 3 m/S 730 mmHg 74%
    06:00 +5°C° 0 mm 4 m/S 730 mmHg 65%
    07:00 +7°C° 0 mm 5 m/S 730 mmHg 56%
    08:00 +7°C° 0 mm 6 m/S 729 mmHg 57%
    09:00 +8°C° 0 mm 7 m/S 728 mmHg 57%
    10:00 +9°C° 0 mm 7 m/S 728 mmHg 58%
    11:00 +9°C° 0.1 mm 7 m/S 727 mmHg 60%
    12:00 +9°C° 0.1 mm 8 m/S 727 mmHg 62%
    13:00 +9°C° 0.1 mm 8 m/S 726 mmHg 64%
    14:00 +9°C° 0.1 mm 7 m/S 726 mmHg 68%
    15:00 +8°C° 0.1 mm 7 m/S 726 mmHg 73%
    16:00 +8°C° 0.1 mm 6 m/S 725 mmHg 77%
    17:00 +8°C° 0.1 mm 6 m/S 725 mmHg 79%
    18:00 +8°C° 0.1 mm 6 m/S 725 mmHg 80%
    19:00 +8°C° 0.1 mm 5 m/S 725 mmHg 81%
    20:00 +8°C° 0.1 mm 5 m/S 724 mmHg 83%
    21:00 +8°C° 0.1 mm 5 m/S 724 mmHg 84%
    22:00 +8°C° 0.1 mm 4 m/S 723 mmHg 85%
    23:00 +8°C° 0 mm 4 m/S 723 mmHg 85%

    Morgen, 15 Dezember, Samstag

    Zeit Temperatur Niederschläge Wind Luftdruck Luftfeuchtigkeit
    00:00 +8°C° 0 mm 5 m/S 722 mmHg 85%
    01:00 +8°C° 0 mm 5 m/S 721 mmHg 84%
    02:00 +8°C° 0.6 mm 5 m/S 720 mmHg 86%
    03:00 +9°C° 0.6 mm 6 m/S 719 mmHg 87%
    04:00 +9°C° 0.6 mm 6 m/S 718 mmHg 89%
    05:00 +9°C° 0.2 mm 6 m/S 717 mmHg 87%
    06:00 +10°C° 0.2 mm 7 m/S 716 mmHg 85%
    07:00 +11°C° 0.2 mm 7 m/S 715 mmHg 82%
    08:00 +11°C° 0.2 mm 7 m/S 714 mmHg 81%
    09:00 +11°C° 0.2 mm 7 m/S 714 mmHg 80%
    10:00 +12°C° 0.2 mm 7 m/S 713 mmHg 79%
    11:00 +12°C° 0.1 mm 7 m/S 712 mmHg 76%
    12:00 +12°C° 0.1 mm 7 m/S 712 mmHg 73%
    13:00 +14°C° 0.1 mm 7 m/S 711 mmHg 70%
    14:00 +12°C° 0.1 mm 7 m/S 711 mmHg 70%
    15:00 +11°C° 0.1 mm 7 m/S 711 mmHg 70%
    16:00 +11°C° 0.1 mm 7 m/S 712 mmHg 69%
    17:00 +9°C° 0.1 mm 7 m/S 712 mmHg 73%
    18:00 +7°C° 0.1 mm 6 m/S 713 mmHg 77%
    19:00 +6°C° 0.1 mm 5 m/S 713 mmHg 81%
    20:00 +5°C° 0.3 mm 5 m/S 715 mmHg 81%
    21:00 +2°C° 0.3 mm 6 m/S 716 mmHg 82%
    22:00 +1°C° 0.3 mm 6 m/S 717 mmHg 83%
    23:00 -1°C° 0.1 mm 6 m/S 718 mmHg 80%

    übermorgen, 16 Dezember, Sonntag

    Zeit Temperatur Niederschläge Wind Luftdruck Luftfeuchtigkeit
    00:00 0°C° 0.1 mm 5 m/S 719 mmHg 78%
    01:00 0°C° 0.1 mm 5 m/S 719 mmHg 76%
    02:00 0°C° 0.1 mm 5 m/S 720 mmHg 73%
    03:00 -2°C° 0.1 mm 6 m/S 721 mmHg 71%
    04:00 -2°C° 0.1 mm 6 m/S 722 mmHg 69%
    05:00 -1°C° 0.1 mm 7 m/S 723 mmHg 65%
    06:00 0°C° 0.1 mm 7 m/S 724 mmHg 61%
    07:00 +1°C° 0.1 mm 8 m/S 724 mmHg 57%
    08:00 +1°C° 0.2 mm 8 m/S 725 mmHg 56%
    09:00 +1°C° 0.2 mm 9 m/S 726 mmHg 56%
    10:00 +1°C° 0.2 mm 9 m/S 726 mmHg 56%
    11:00 +2°C° 0.2 mm 9 m/S 727 mmHg 54%
    12:00 +2°C° 0.2 mm 10 m/S 728 mmHg 53%
    13:00 +2°C° 0.2 mm 10 m/S 728 mmHg 52%
    14:00 +2°C° 0.1 mm 10 m/S 729 mmHg 54%
    15:00 +2°C° 0.1 mm 9 m/S 730 mmHg 56%
    16:00 +2°C° 0.1 mm 9 m/S 730 mmHg 58%
    17:00 +1°C° 0.1 mm 8 m/S 731 mmHg 61%
    18:00 +1°C° 0.1 mm 8 m/S 731 mmHg 63%
    19:00 0°C° 0.1 mm 7 m/S 731 mmHg 66%
    20:00 +1°C° 0 mm 6 m/S 731 mmHg 71%
    21:00 0°C° 0 mm 5 m/S 731 mmHg 75%
    22:00 0°C° 0 mm 5 m/S 731 mmHg 80%
    23:00 0°C° 0 mm 5 m/S 731 mmHg 81%

    17 Dezember, Montag

    Zeit Temperatur Niederschläge Wind Luftdruck Luftfeuchtigkeit
    00:00 +1°C° 0 mm 5 m/S 730 mmHg 82%
    01:00 +1°C° 0 mm 6 m/S 730 mmHg 83%
    02:00 +2°C° 0.1 mm 6 m/S 730 mmHg 82%
    03:00 +3°C° 0.1 mm 7 m/S 730 mmHg 81%
    04:00 +4°C° 0.1 mm 8 m/S 730 mmHg 80%
    05:00 +4°C° 0.2 mm 8 m/S 730 mmHg 77%
    06:00 +5°C° 0.2 mm 9 m/S 730 mmHg 74%
    07:00 +6°C° 0.2 mm 10 m/S 730 mmHg 71%
    08:00 +6°C° 0.2 mm 10 m/S 731 mmHg 70%
    09:00 +6°C° 0.2 mm 10 m/S 731 mmHg 70%
    10:00 +6°C° 0.2 mm 10 m/S 731 mmHg 69%
    11:00 +6°C° 0.2 mm 10 m/S 731 mmHg 69%
    12:00 +6°C° 0.2 mm 10 m/S 731 mmHg 69%
    13:00 +6°C° 0.2 mm 9 m/S 731 mmHg 70%
    14:00 +6°C° 0.1 mm 10 m/S 731 mmHg 69%
    15:00 +6°C° 0.1 mm 10 m/S 731 mmHg 69%
    16:00 +6°C° 0.1 mm 10 m/S 731 mmHg 69%
    17:00 +6°C° 0.1 mm 10 m/S 731 mmHg 70%
    18:00 +5°C° 0.1 mm 9 m/S 732 mmHg 72%
    19:00 +5°C° 0.1 mm 9 m/S 732 mmHg 74%
    20:00 +4°C° 0 mm 8 m/S 732 mmHg 76%
    21:00 +4°C° 0 mm 7 m/S 732 mmHg 79%
    22:00 +3°C° 0 mm 7 m/S 732 mmHg 82%
    23:00 +3°C° 0 mm 6 m/S 732 mmHg 83%

    18 Dezember, Dienstag

    Zeit Temperatur Niederschläge Wind Luftdruck Luftfeuchtigkeit
    00:00 +2°C° 0 mm 5 m/S 732 mmHg 83%
    01:00 +2°C° 0 mm 5 m/S 732 mmHg 84%
    02:00 +3°C° 0 mm 4 m/S 731 mmHg 84%
    03:00 +4°C° 0 mm 3 m/S 731 mmHg 84%
    04:00 +5°C° 0 mm 2 m/S 731 mmHg 85%
    05:00 +5°C° 0 mm 2 m/S 730 mmHg 82%
    06:00 +6°C° 0 mm 2 m/S 730 mmHg 79%
    07:00 +7°C° 0 mm 2 m/S 730 mmHg 76%
    08:00 +7°C° 0 mm 2 m/S 730 mmHg 72%
    09:00 +8°C° 0 mm 2 m/S 729 mmHg 68%
    10:00 +9°C° 0 mm 2 m/S 729 mmHg 64%
    11:00 +10°C° 0 mm 2 m/S 729 mmHg 62%
    12:00 +10°C° 0 mm 3 m/S 728 mmHg 61%
    13:00 +10°C° 0 mm 3 m/S 728 mmHg 59%
    14:00 +11°C° 0 mm 3 m/S 728 mmHg 59%
    15:00 +11°C° 0 mm 3 m/S 727 mmHg 58%
    16:00 +11°C° 0 mm 4 m/S 727 mmHg 57%
    17:00 +10°C° 0 mm 4 m/S 727 mmHg 61%
    18:00 +7°C° 0 mm 4 m/S 727 mmHg 65%
    19:00 +6°C° 0 mm 4 m/S 727 mmHg 69%
    20:00 +5°C° 0 mm 4 m/S 728 mmHg 74%
    21:00 +4°C° 0 mm 4 m/S 728 mmHg 79%
    22:00 +1°C° 0 mm 4 m/S 728 mmHg 84%
    23:00 +1°C° 0.1 mm 5 m/S 729 mmHg 81%

    19 Dezember, Mittwoch

    Zeit Temperatur Niederschläge Wind Luftdruck Luftfeuchtigkeit
    00:00 +1°C° 0.1 mm 6 m/S 729 mmHg 79%
    01:00 +1°C° 0.1 mm 6 m/S 730 mmHg 76%
    02:00 +1°C° 0 mm 6 m/S 730 mmHg 74%
    03:00 -1°C° 0 mm 6 m/S 731 mmHg 71%
    04:00 -1°C° 0 mm 6 m/S 732 mmHg 69%
    05:00 -1°C° 0 mm 7 m/S 732 mmHg 66%
    06:00 0°C° 0 mm 7 m/S 733 mmHg 62%
    07:00 +2°C° 0 mm 7 m/S 733 mmHg 58%
    08:00 +2°C° 0 mm 7 m/S 733 mmHg 56%
    09:00 +3°C° 0 mm 7 m/S 734 mmHg 55%
    10:00 +3°C° 0 mm 7 m/S 734 mmHg 53%
    11:00 +4°C° 0 mm 7 m/S 734 mmHg 53%
    12:00 +4°C° 0 mm 7 m/S 734 mmHg 52%
    13:00 +4°C° 0 mm 7 m/S 734 mmHg 52%
    14:00 +4°C° 0 mm 7 m/S 734 mmHg 52%
    15:00 +4°C° 0 mm 6 m/S 734 mmHg 53%
    16:00 +4°C° 0 mm 6 m/S 735 mmHg 54%
    17:00 +4°C° 0 mm 6 m/S 734 mmHg 56%
    18:00 +3°C° 0 mm 5 m/S 734 mmHg 58%
    19:00 +4°C° 0 mm 4 m/S 734 mmHg 61%
    20:00 +3°C° 0 mm 3 m/S 733 mmHg 65%
    21:00 +2°C° 0 mm 3 m/S 733 mmHg 70%
    22:00 +2°C° 0 mm 2 m/S 733 mmHg 74%
    23:00 +2°C° 0 mm 2 m/S 732 mmHg 74%
    Mehr zeigen